Location: Cold Norton
(51.6667°N, 0.6667°E)
Time: 07:51:16
(UTC+00:00)

Cosmos 2227 Rocket - Pass Details

Date: 18 November 2025
Orbit: 839 x 842 km, 71.0° (Epoch: 12 December)

Event Time Altitude Azimuth Distance (km) Brightness Sun altitude
Rises 19:15:12 0° 326° (NW) 3,405 5.9 -29.4°
Reaches altitude 10° 19:18:55 10° 350° (N) 2,468 4.8 -30.0°
Enters shadow 19:20:18 13° 4° (N) 2,259 4.4 -30.2°
